Location: Invercargill
(46.4000°S, 168.3500°E)
Time: 00:41:36
(UTC+13:00)

Cosmos 1633 - Pass Details

Date: 24 January 2019
Orbit: 464 x 484 km, 82.5° (Epoch: 17 October)

Event Time Altitude Azimuth Distance (km) Brightness Sun altitude
Rises 23:09:34 0° 192° (SSW) 2,550 7.4 -14.1°
Reaches altitude 10° 23:11:41 10° 194° (SSW) 1,665 6.3 -14.3°
Maximum altitude 23:15:18 68° 276° (W) 521 2.8 -14.7°
Enters shadow 23:17:37 21° 356° (N) 1,135 4.0 -15.0°
